Theta_e
346 347 348 348 348 348 350 351 351 352 351 351 351 350 350 350 350 349 348 348 346 345 343 344 344 344 347 345 346 347 346 346 346 346 345 344 344 344 343 343 343 343 342 342 342 342 343 342 341 343 343 341 343 339 334 335 333 335 334 335 335 334
345 345 347 348 348 348 348 349 346 347 349 348 349 349 347 346 349 346 346 344 341 343 340 339 340 348 342 344 346 347 346 346 346 346 345 344 344 344 343 343 343 343 342 342 341 336 337 341 342 343 342 342 336 334 334 334 334 334 335 334 335 338
342 344 346 346 346 347 346 345 345 346 348 349 349 348 345 346 343 342 343 341 341 339 342 341 337 343 343 345 345 347 347 346 346 345 345 345 344 344 344 343 344 344 342 343 338 330 330 330 331 341 342 336 333 333 334 334 332 332 333 335 335 341
342 344 344 343 344 344 343 343 344 344 344 344 345 345 343 343 343 342 341 338 338 340 339 337 344 345 344 342 343 346 347 346 345 345 346 344 345 344 343 343 343 344 343 341 333 330 331 331 330 328 331 331 331 331 332 332 332 332 334 339 337 341
344 344 343 343 343 343 343 343 343 343 342 342 341 340 340 340 341 340 338 339 341 338 337 336 337 338 339 340 340 339 342 342 339 339 344 337 339 341 340 339 338 339 336 335 332 328 328 330 330 329 329 330 331 332 333 332 331 332 334 336 338 341
344 343 343 342 343 345 344 341 340 341 340 339 339 338 337 338 339 339 340 339 338 335 335 336 335 337 339 337 337 337 338 338 337 339 341 336 336 337 337 336 337 337 334 331 329 327 327 329 329 328 327 328 330 331 332 331 331 333 335 336 339 341
341 342 342 343 343 342 340 341 340 339 337 336 335 334 335 336 339 339 339 337 335 334 335 335 334 335 338 337 336 336 336 336 336 337 339 335 336 337 336 333 334 333 332 329 328 328 329 329 328 327 326 328 330 332 331 331 330 332 334 336 339 341
340 340 339 342 340 338 339 339 340 341 336 338 335 333 333 334 339 339 338 334 338 334 332 335 334 335 337 336 334 334 333 334 335 336 336 337 334 334 335 333 332 332 330 329 329 330 329 329 327 326 327 328 328 328 329 332 330 331 333 335 337 340
340 339 339 339 338 338 338 339 339 335 334 339 334 334 335 337 337 337 338 336 337 334 333 332 334 335 334 332 333 333 333 332 334 334 334 335 336 333 333 333 331 331 330 329 328 329 330 330 328 328 328 328 328 328 329 332 331 331 332 334 335 339
338 338 338 337 336 335 335 335 336 336 336 340 335 335 337 335 337 336 334 337 338 336 333 332 332 334 333 331 332 332 333 333 334 334 333 333 335 333 333 332 331 331 330 329 328 329 329 328 329 328 328 328 329 328 329 330 332 330 330 332 333 337
338 340 337 336 335 334 335 334 334 336 338 336 335 337 337 336 336 334 333 334 336 337 334 333 334 332 333 333 332 333 334 336 333 334 335 335 336 335 332 331 331 329 329 328 329 330 330 328 328 328 329 328 328 326 329 329 329 331 331 329 331 335
335 337 335 336 337 335 334 335 335 337 336 336 335 333 334 334 339 333 333 334 336 336 335 333 331 333 332 333 332 333 334 335 334 335 335 335 334 335 333 332 332 330 332 330 329 329 330 328 327 327 328 328 329 329 327 328 328 330 332 331 331 333
334 335 333 333 334 333 334 336 334 334 334 336 335 332 331 333 335 334 335 335 331 332 333 331 332 332 332 332 330 331 334 334 335 332 332 333 336 334 333 331 329 331 329 329 328 328 330 327 328 330 330 330 329 330 330 327 328 329 332 332 330 331
329 329 330 331 331 328 332 333 334 333 336 333 332 332 334 333 334 332 332 335 335 335 333 333 333 331 332 331 332 332 331 332 334 332 332 333 333 333 332 331 329 328 332 327 326 327 327 328 329 330 330 331 331 330 330 329 328 328 331 331 332 331
328 326 329 327 327 328 330 333 334 333 331 330 331 332 332 334 334 335 334 332 333 333 336 334 333 332 334 334 333 330 330 332 334 332 332 332 332 333 331 330 329 329 327 326 327 330 329 329 328 329 330 330 330 331 330 329 330 328 328 330 333 333
330 328 326 326 326 327 329 331 332 336 331 330 329 330 331 333 333 334 331 331 333 333 334 333 334 336 334 334 333 332 331 332 334 333 333 332 331 329 330 332 331 330 325 326 329 328 329 327 327 328 328 328 329 329 329 329 329 329 329 328 329 333
328 329 328 329 328 325 325 326 328 331 332 330 329 327 329 331 331 332 331 330 332 335 333 331 332 335 336 333 332 332 331 332 333 332 330 330 329 330 330 332 328 331 328 326 328 329 328 328 328 327 328 328 328 329 329 328 328 329 330 328 327 327
330 329 328 326 325 323 322 324 321 325 332 330 330 331 332 331 331 331 330 330 331 331 332 332 331 331 333 334 332 330 329 330 332 333 330 328 326 328 329 331 329 330 330 328 327 328 327 326 330 330 329 328 327 329 328 328 329 330 328 328 328 327
328 327 324 326 327 324 321 319 318 319 321 324 329 330 331 330 331 333 332 331 333 334 333 332 332 332 333 334 331 329 328 330 331 329 329 326 326 329 329 329 329 328 329 329 328 328 327 326 328 328 330 328 328 326 327 328 328 327 327 328 329 330
326 325 326 324 322 320 317 317 317 319 320 323 324 325 325 327 329 330 331 331 332 333 334 334 333 332 332 332 331 329 329 331 332 330 327 326 325 326 326 326 326 327 328 329 328 327 326 325 324 326 325 326 327 328 328 327 326 326 326 327 327 327
325 326 326 322 319 318 317 317 317 315 317 320 321 322 321 319 318 319 321 323 324 325 325 329 333 331 331 336 332 330 330 328 329 330 328 325 325 326 327 325 325 324 325 324 324 325 325 326 323 321 323 324 323 327 328 327 324 325 327 325 326 324
324 324 324 323 321 320 321 320 317 316 317 319 319 318 317 318 321 323 324 324 324 323 323 324 326 329 332 331 331 330 330 329 329 328 328 328 327 328 327 326 325 323 325 322 321 324 326 324 318 318 317 317 318 320 327 323 323 323 326 326 325 324
324 323 323 323 323 321 321 322 319 316 318 317 318 319 318 320 322 321 320 321 320 321 322 319 319 327 330 331 331 329 330 329 328 329 327 327 327 326 327 325 323 322 321 322 322 324 323 322 318 320 317 313 311 311 314 318 323 324 327 327 326 326
324 324 324 324 323 320 319 319 319 318 319 319 318 320 319 319 319 319 319 320 320 319 319 319 321 321 321 324 326 328 328 327 327 326 325 325 325 325 326 325 324 324 322 318 319 321 324 323 323 317 311 310 311 310 307 310 315 322 327 326 324 325
323 324 323 325 321 318 317 316 316 316 318 317 318 316 315 315 317 321 320 319 320 321 321 321 320 321 323 321 321 324 325 326 325 326 326 326 326 325 325 324 325 324 322 319 318 321 323 325 323 324 317 312 308 306 307 313 314 316 321 322 325 325
322 323 323 321 321 318 315 313 312 311 311 313 313 312 312 314 315 316 317 318 319 320 320 319 319 320 320 320 318 319 319 319 319 322 325 324 326 326 326 326 325 325 324 323 320 319 317 321 322 322 323 320 315 311 312 316 313 308 317 322 323 325
323 322 324 322 322 320 315 313 312 312 313 313 312 313 315 317 317 317 318 318 319 320 321 319 317 316 316 317 315 314 315 317 319 320 321 319 318 319 321 325 326 323 323 323 322 317 317 317 320 320 321 321 321 321 321 315 310 312 307 313 318 319
323 323 324 322 321 320 316 313 313 313 315 315 315 314 316 317 318 319 318 317 318 316 315 315 314 314 314 316 313 311 311 314 316 318 320 318 318 319 320 321 321 320 321 322 320 319 316 317 316 315 319 317 318 321 321 319 318 315 310 307 310 318
324 322 323 322 321 318 317 314 313 315 317 316 315 316 317 318 318 318 317 316 314 312 312 312 312 312 311 313 316 313 310 309 312 315 318 316 317 319 318 318 317 317 315 315 318 319 318 316 317 315 315 316 317 318 318 317 319 317 312 307 308 311
324 323 323 321 320 318 317 316 314 316 315 315 315 314 315 316 317 317 315 314 313 312 312 313 313 313 313 314 313 313 312 311 310 315 316 315 315 314 313 313 314 315 314 313 313 313 314 312 311 311 315 318 315 315 315 315 316 316 316 313 308 309
324 324 323 321 319 318 316 317 316 317 315 313 313 314 314 314 315 313 313 313 312 313 312 313 314 313 312 312 313 315 311 311 313 317 314 311 312 313 312 312 313 313 312 310 309 309 310 310 309 308 308 309 310 311 309 308 306 309 308 306 305 305
323 324 323 320 319 318 316 317 317 316 315 314 314 315 314 314 313 312 313 313 313 312 313 313 312 311 312 314 314 313 314 313 314 312 312 312 313 314 314 313 311 311 311 310 310 309 306 306 306 307 306 308 308 308 308 307 309 308 308 306 305 303
322 321 322 320 319 318 316 317 318 316 315 316 315 314 314 314 313 313 314 313 311 311 311 312 312 312 311 312 314 312 312 310 311 312 311 313 313 312 311 311 311 310 310 309 308 308 306 305 306 306 305 306 306 307 308 308 309 308 308 308 307 303
321 322 322 320 320 319 316 317 318 316 316 317 315 315 314 314 314 315 315 313 312 312 311 311 312 311 313 314 314 314 313 312 312 314 314 312 311 311 312 311 311 311 310 310 309 307 307 306 305 305 305 304 304 305 305 306 307 307 306 305 304 303
321 322 322 321 321 322 321 319 320 318 317 317 316 315 315 316 315 315 315 314 313 313 313 313 313 313 314 314 313 312 312 311 311 310 312 312 315 313 312 313 313 311 310 309 310 309 307 306 307 305 304 306 307 305 304 305 306 307 308 306 306 305
320 320 321 322 321 322 322 320 319 318 317 318 317 316 316 317 316 316 316 315 314 314 314 314 314 314 314 314 312 312 312 311 311 312 311 310 311 311 310 310 310 309 309 313 309 308 308 307 306 306 306 307 305 305 305 308 308 306 306 308 308 306
320 321 321 321 322 323 323 321 320 318 317 317 317 316 316 316 316 316 317 316 315 315 315 315 315 315 316 314 313 311 312 311 311 311 311 312 312 310 310 311 310 308 308 311 310 309 308 307 307 307 306 307 306 304 305 307 306 308 308 307 307 306
Wind_Speed
7 8 8 7 6 7 9 12 10 12 12 11 10 12 12 12 11 11 9 8 7 5 5 5 5 4 6 4 6 8 9 9 9 9 9 9 9 9 9 9 8 7 7 7 5 5 5 4 5 4 3 5 7 5 3 4 5 5 5 6 7 7
7 8 8 7 6 5 6 8 6 6 6 8 10 11 8 6 9 5 10 6 3 3 4 3 3 5 3 3 4 9 9 8 9 9 8 8 9 9 9 8 8 8 7 7 7 3 1 3 4 5 4 4 3 4 3 2 5 5 5 5 6 8
7 7 8 7 6 6 7 5 5 5 5 7 9 8 5 7 4 6 4 4 3 3 3 3 2 3 3 4 3 8 8 8 8 8 8 8 8 9 7 8 8 8 7 6 4 2 2 2 3 6 6 3 3 4 3 3 6 5 5 5 5 12
7 7 7 6 6 6 5 6 5 5 5 5 5 5 5 5 5 4 4 4 3 3 3 2 4 7 7 4 4 7 9 8 8 7 8 6 8 8 9 9 8 8 6 3 3 4 4 4 3 3 4 4 4 4 2 3 6 5 5 6 6 13
7 7 6 6 7 6 5 6 4 5 5 5 4 5 5 4 5 5 5 4 3 3 3 2 2 2 2 3 4 3 4 4 3 3 5 3 4 4 5 4 3 5 3 4 3 3 3 4 5 4 3 3 4 4 0 6 6 6 4 4 5 11
7 6 6 6 6 7 7 6 5 4 5 4 5 4 5 5 5 5 5 4 3 3 3 3 1 2 0 2 3 4 4 3 3 4 4 4 4 3 3 3 4 4 4 4 4 4 5 5 5 5 5 5 5 6 2 6 6 6 5 5 6 10
6 7 6 6 5 5 5 5 6 4 5 4 3 3 4 3 4 5 5 5 5 3 3 3 0 3 2 4 3 2 3 3 3 4 4 3 5 4 4 4 5 5 5 4 4 4 6 7 5 4 4 5 6 1 5 6 5 6 6 5 6 11
6 6 6 6 6 5 4 4 5 5 4 3 3 2 2 3 3 4 4 4 6 4 4 3 2 4 3 3 2 1 2 2 1 2 2 2 5 4 5 5 5 5 5 5 5 5 2 2 5 6 3 1 3 2 4 7 4 6 5 5 6 8
7 8 7 7 7 6 5 4 3 3 3 5 4 3 3 3 6 3 2 1 4 6 5 3 3 2 3 2 1 2 1 2 2 2 2 4 4 5 5 5 5 5 6 5 4 1 1 0 1 1 1 2 1 2 4 7 6 6 6 6 6 7
9 8 7 7 6 7 6 5 5 5 5 6 6 5 4 4 5 6 2 2 1 1 4 5 1 0 4 3 4 2 1 3 4 4 4 3 3 3 5 6 6 6 6 4 3 3 3 1 1 1 2 1 0 1 0 7 7 6 5 6 6 7
7 4 7 5 6 7 8 6 6 4 3 3 3 6 5 5 5 4 5 1 2 2 3 3 3 0 3 4 2 3 4 4 4 4 3 3 2 3 2 6 7 4 2 4 2 2 3 2 1 2 1 1 1 1 2 2 6 6 7 6 5 6
6 5 5 5 4 4 7 8 7 5 3 2 2 3 4 4 5 7 6 6 3 2 4 4 1 3 2 1 3 4 3 4 4 3 3 1 1 1 2 3 3 3 1 3 5 5 3 3 1 2 2 1 0 1 1 2 3 7 6 5 6 6
6 7 6 4 3 3 2 4 5 5 6 5 3 3 4 4 4 6 5 4 5 6 4 0 0 3 3 5 4 3 4 3 4 2 3 2 0 1 1 2 3 2 3 4 5 4 3 3 5 4 5 5 5 5 4 3 1 6 7 6 6 6
9 10 7 5 5 4 7 4 4 4 4 5 4 4 5 3 3 1 3 5 7 7 5 3 2 2 3 6 4 5 4 2 4 3 2 2 2 0 0 0 1 4 4 5 4 3 4 5 5 3 4 3 3 3 4 4 5 3 4 7 6 5
7 6 7 6 6 6 8 9 7 5 5 7 7 6 5 4 4 3 3 3 5 4 4 5 2 3 5 7 2 2 3 2 4 3 2 2 3 0 2 1 2 3 3 4 4 4 4 4 4 4 3 4 4 3 4 4 4 4 5 1 4 6
7 7 7 7 6 8 9 8 8 7 5 3 5 7 7 6 5 3 3 2 1 3 3 4 5 7 6 4 4 3 2 2 3 4 3 2 1 1 2 3 2 3 6 4 5 3 4 4 3 3 3 4 4 3 4 4 4 4 3 3 3 1
8 7 5 6 6 5 7 6 7 9 8 5 2 3 5 6 7 6 5 5 3 1 1 1 1 5 3 3 4 4 2 1 3 4 3 2 2 1 2 4 3 3 4 5 6 5 4 4 4 3 3 4 3 3 4 4 4 3 3 5 4 4
7 7 6 6 5 5 4 4 5 7 9 7 5 3 4 5 6 7 6 6 5 3 2 2 1 4 1 3 4 4 3 1 2 4 3 3 2 2 2 4 4 3 4 5 5 5 4 3 4 4 3 3 3 4 4 3 3 3 5 4 4 4
7 7 6 5 4 5 5 4 4 6 7 10 9 7 6 5 4 5 6 6 8 8 10 10 9 7 5 5 3 2 2 2 2 2 3 2 3 3 3 3 4 4 4 5 5 4 3 2 4 3 3 2 3 2 2 2 4 4 5 4 4 4
7 7 5 6 6 6 5 4 4 5 7 7 6 6 4 5 5 6 5 7 6 6 6 7 8 6 6 5 4 2 2 3 4 3 3 3 2 4 3 3 3 4 5 4 4 3 3 3 3 4 3 2 1 0 1 1 2 3 3 3 4 4
6 6 7 6 5 5 4 4 3 6 7 7 8 6 6 6 6 5 4 4 4 4 4 4 5 6 6 5 5 4 3 2 2 3 4 3 2 3 3 2 1 2 3 3 2 2 2 3 3 2 2 2 1 1 0 1 1 1 2 2 3 4
6 5 5 6 6 5 4 6 4 5 6 7 7 7 6 5 6 5 5 4 2 3 3 3 4 6 5 4 4 5 4 3 2 3 4 4 3 3 1 1 2 3 4 2 2 1 1 2 1 1 1 1 2 2 1 1 1 2 1 2 2 2
7 6 5 4 3 3 1 2 5 4 8 4 4 6 7 5 5 6 5 5 5 3 2 3 3 5 6 5 5 5 5 4 4 5 5 4 5 5 3 2 3 3 2 2 2 2 2 2 2 2 1 2 1 1 1 2 1 1 0 1 2 2
8 6 5 4 4 5 5 7 6 7 6 7 6 5 5 5 5 6 5 4 4 4 4 3 3 6 6 4 4 5 4 4 4 3 5 5 5 5 4 3 3 3 4 1 1 1 2 3 3 2 1 1 1 1 1 1 1 0 1 0 1 1
8 6 4 6 8 7 9 9 7 6 7 7 6 6 6 6 5 5 5 5 4 5 6 6 6 5 5 5 4 3 4 3 3 3 4 5 4 4 3 3 4 4 2 4 2 1 2 3 3 2 2 2 1 1 1 1 1 1 1 1 0 0
4 4 5 6 9 8 9 10 9 9 7 7 6 6 6 7 6 5 5 4 6 6 6 6 6 6 6 5 6 5 6 6 4 4 3 4 5 5 4 3 4 5 4 2 4 3 2 2 3 2 2 1 0 2 1 0 1 0 2 1 0 0
6 3 4 4 6 8 7 7 8 8 8 8 8 3 4 5 7 6 6 5 4 5 6 7 6 5 6 6 6 5 4 4 6 6 5 6 6 4 4 4 3 2 3 4 4 3 4 2 2 1 1 1 1 1 2 1 0 0 1 2 1 1
4 4 3 4 4 7 7 6 7 7 6 5 6 7 7 6 6 5 6 6 6 6 6 6 6 6 6 6 6 7 6 6 6 6 6 6 5 5 6 5 4 3 3 3 4 6 4 4 3 1 0 1 0 0 1 1 1 1 1 0 1 1
7 2 3 4 5 5 7 7 8 7 6 5 7 7 6 6 6 6 6 5 7 6 7 6 6 6 6 6 5 5 6 6 6 5 6 6 6 6 6 5 5 6 6 5 3 3 4 3 3 2 2 0 0 0 0 1 1 1 1 2 2 1
10 6 4 4 5 5 6 7 6 6 9 7 7 6 6 7 5 5 7 7 6 6 6 6 5 5 5 5 6 5 6 6 6 5 5 5 6 7 6 6 5 5 6 6 5 5 4 4 4 2 1 4 1 1 1 1 0 0 1 0 1 2
5 9 5 6 6 8 7 6 6 9 10 10 9 9 8 5 6 6 7 6 6 6 6 6 6 5 5 5 5 5 6 5 5 4 6 6 5 5 5 5 6 7 6 6 5 5 5 4 4 5 5 5 5 5 3 2 1 2 2 3 2 3
3 5 6 5 5 7 7 5 6 8 10 10 10 9 9 8 8 8 7 7 6 6 6 6 6 5 4 4 4 4 4 5 5 5 5 4 4 4 5 6 6 6 5 4 4 5 4 5 5 5 5 5 5 5 5 4 2 2 3 1 2 1
8 3 9 8 6 6 5 4 7 9 9 9 10 10 9 8 7 8 7 7 6 6 6 6 6 6 4 5 4 5 5 5 5 5 5 6 5 6 6 6 6 5 5 5 4 4 5 3 4 4 5 3 5 5 4 3 4 4 3 5 5 4
6 1 3 4 4 4 6 4 5 8 8 9 10 10 9 9 8 7 7 8 7 7 6 6 6 5 5 4 4 4 4 4 3 4 4 4 5 5 5 6 4 5 4 3 4 4 4 4 4 4 4 6 4 4 3 4 4 5 4 4 3 2
5 6 3 5 4 4 5 7 3 6 7 8 9 9 9 8 8 8 8 8 7 7 7 6 6 4 4 4 5 5 4 4 4 4 4 4 4 4 4 5 4 4 4 4 4 4 4 4 4 4 4 3 5 5 5 6 5 3 4 2 2 1
7 6 7 4 7 7 2 7 5 5 7 9 8 8 8 7 7 8 9 9 9 8 7 7 6 5 4 5 5 5 4 4 4 3 2 4 5 5 5 5 4 4 4 3 4 4 3 4 3 2 1 2 4 3 3 5 4 5 5 4 3 3
9 8 5 3 8 7 6 8 7 5 6 8 9 9 9 8 8 8 9 9 9 8 8 8 7 6 6 5 6 5 4 4 3 2 2 2 4 5 5 4 4 4 3 3 3 3 3 3 1 1 2 3 4 3 3 3 3 3 2 3 2 3
Wind_Direction
130 127 124 119 113 122 137 136 134 136 138 139 132 133 130 135 137 138 132 125 121 115 117 114 111 111 136 129 143 146 147 147 145 144 146 147 147 153 158 160 164 164 156 158 165 175 187 207 228 240 259 297 311 323 338 42 110 118 115 126 131 143
128 121 124 125 121 125 131 129 127 136 135 135 127 127 124 131 133 121 127 111 107 110 112 116 122 140 130 137 147 154 157 152 149 150 150 151 154 160 166 166 171 173 174 168 177 179 235 260 245 258 277 276 315 308 307 74 124 117 121 126 134 145
127 122 125 122 121 131 127 123 126 127 137 139 142 132 138 129 113 123 128 109 93 78 99 102 98 141 156 148 168 161 160 155 154 156 154 156 162 168 170 174 178 183 185 187 180 157 198 242 298 288 284 312 313 298 306 68 122 125 126 135 142 147
138 132 133 130 127 132 138 134 130 129 135 152 141 142 137 136 130 118 110 107 97 77 76 83 155 170 172 169 169 171 162 157 163 164 161 161 169 172 175 178 187 198 188 199 204 207 197 213 221 266 283 282 279 286 331 97 118 116 126 137 140 147
139 137 131 129 131 139 139 130 134 145 150 145 131 131 133 141 134 127 113 115 124 113 96 85 56 339 153 158 139 132 149 152 158 159 162 156 174 177 169 169 195 208 185 207 228 243 245 226 214 210 245 268 269 261 165 125 116 116 127 126 134 144
140 134 131 130 137 146 135 139 151 167 145 137 130 128 126 130 116 128 131 137 116 102 87 99 25 229 165 127 120 155 157 157 165 162 166 173 181 173 160 172 184 215 218 209 214 228 232 225 210 211 212 213 241 254 164 129 128 127 133 137 141 138
130 131 125 123 118 118 116 131 161 167 148 134 104 135 132 112 116 131 147 150 121 103 78 130 165 270 140 98 109 148 133 135 143 143 177 167 187 180 173 185 186 216 224 220 222 234 223 221 198 202 231 232 216 231 72 134 132 132 138 145 150 145
140 133 128 128 117 113 112 129 159 160 143 139 119 151 169 124 136 150 168 174 116 130 135 149 184 244 101 106 169 191 137 146 145 145 148 180 177 190 184 195 197 202 222 225 233 216 218 139 174 183 179 254 164 106 88 117 133 133 145 147 150 153
143 143 139 138 138 136 132 131 145 154 164 174 161 182 175 145 134 154 140 214 135 143 141 134 167 203 92 126 198 214 126 191 197 191 188 225 196 184 192 201 198 208 214 228 225 219 262 359 162 94 77 34 274 138 108 121 146 152 147 154 151 158
161 151 148 150 148 146 147 141 162 183 186 171 170 160 157 133 131 119 91 17 42 100 112 115 72 40 125 182 205 210 175 214 200 197 192 232 236 206 195 205 201 200 203 196 198 210 197 197 120 64 23 82 249 94 78 129 150 149 153 155 160 162
153 145 141 152 158 155 151 154 165 181 177 155 148 133 136 145 123 106 98 112 242 144 117 103 78 252 191 156 191 218 202 210 201 211 182 233 249 195 169 153 181 171 190 187 184 230 180 184 165 152 278 355 326 357 118 146 128 145 156 162 162 163
165 150 159 169 152 153 148 156 167 152 132 126 108 88 98 82 88 103 131 207 189 119 89 81 146 238 245 119 208 210 220 193 209 181 125 173 245 242 161 185 172 150 188 144 118 77 71 97 40 199 172 287 300 57 276 172 175 133 152 155 161 171
167 169 156 159 165 182 153 142 143 138 137 138 122 94 88 78 91 161 137 110 41 33 15 133 186 273 230 220 204 208 190 162 178 145 158 178 95 321 125 191 203 156 182 99 91 80 74 82 74 53 49 47 33 37 15 8 267 121 162 162 172 179
122 137 150 166 175 178 188 140 132 141 131 126 128 116 90 93 95 41 122 139 138 137 170 199 208 245 238 245 219 162 156 156 141 146 182 175 159 293 75 68 244 166 161 117 105 100 77 77 82 65 64 47 41 47 60 48 34 2 148 165 172 170
104 104 116 124 110 95 115 147 154 150 166 148 145 132 121 118 126 158 98 73 110 127 165 162 220 246 246 249 227 137 123 170 144 146 184 181 157 116 84 116 94 128 129 116 97 96 105 97 93 71 53 66 39 31 44 66 36 21 32 75 182 161
102 103 106 108 107 108 122 143 152 156 159 161 149 137 141 141 134 117 110 81 76 164 178 170 172 216 210 189 165 151 174 192 167 147 175 172 113 86 112 81 40 108 127 116 107 91 95 94 81 77 73 65 47 36 42 35 42 21 12 45 75 202
117 116 113 109 114 116 121 134 143 151 165 146 126 86 129 140 136 150 149 154 170 192 208 98 352 271 188 165 149 144 173 147 144 141 144 134 119 133 142 107 65 71 120 121 112 113 102 110 102 91 66 64 57 53 37 31 20 12 2 39 16 67
121 125 132 133 130 124 116 106 107 132 137 138 141 160 148 149 152 155 154 157 153 133 134 239 171 266 193 148 154 165 167 155 136 138 142 135 111 48 91 108 97 57 87 104 104 113 119 123 129 114 99 85 53 54 34 18 2 5 25 17 25 34
126 137 138 128 119 113 120 129 131 112 106 132 155 161 152 140 138 145 154 158 166 169 173 183 173 195 171 148 161 169 152 164 132 132 146 106 81 75 68 71 109 86 69 86 103 93 102 95 118 113 105 95 81 55 42 25 5 27 31 20 17 6
139 146 136 132 133 132 129 140 113 82 95 107 113 114 114 124 127 140 147 155 165 165 168 163 157 163 138 144 148 144 128 133 147 140 106 84 72 79 96 91 103 111 105 84 70 88 72 74 65 71 84 69 71 100 76 45 35 37 31 42 17 360
156 150 139 143 143 150 147 149 128 136 126 121 117 114 110 111 111 123 127 134 138 144 129 144 155 140 149 139 134 133 114 116 133 124 111 110 112 73 57 72 63 54 101 97 56 42 51 93 91 40 27 59 13 28 98 39 27 18 52 35 24 12
151 150 158 162 168 167 171 169 158 145 131 129 120 111 106 104 111 97 79 65 78 113 114 102 129 141 135 135 135 143 144 152 169 139 130 127 114 86 28 73 70 52 28 91 87 93 155 85 32 129 104 356 347 344 46 82 344 344 9 26 29 355
158 160 181 168 133 156 111 128 117 141 127 120 113 125 122 126 106 97 93 95 85 61 66 87 68 96 139 157 154 143 138 140 137 131 122 138 134 139 183 132 94 110 62 36 88 108 91 72 135 104 92 73 343 25 333 14 348 334 359 55 3 360
169 171 172 149 130 107 107 104 105 116 115 120 129 115 106 105 97 91 93 92 84 93 88 72 85 90 97 105 141 144 134 143 152 134 139 141 143 154 158 144 124 113 121 88 46 47 68 87 73 97 53 155 209 116 11 335 331 307 75 123 100 354
172 171 151 145 123 119 107 99 98 92 101 91 80 99 106 100 109 114 96 71 77 74 68 69 67 67 66 76 85 120 134 131 130 135 131 139 139 151 150 141 139 125 146 149 165 130 51 50 73 86 134 107 22 41 207 232 47 319 9 50 319 76
163 146 140 145 134 126 125 128 128 125 124 123 125 125 131 135 123 114 120 104 80 83 84 79 76 73 71 65 59 73 109 118 117 120 132 138 131 124 135 143 172 159 162 154 140 110 85 46 78 69 48 91 168 169 169 254 82 266 315 218 188 61
152 148 141 149 139 126 126 134 139 141 143 147 145 154 130 123 121 122 110 103 95 69 77 83 76 74 64 58 60 58 62 86 85 78 77 82 95 116 127 139 137 120 162 149 126 118 131 110 52 29 80 59 63 64 111 103 218 343 7 324 331 285
113 128 142 158 140 137 137 140 137 138 136 142 138 135 132 127 122 121 111 110 97 85 81 82 77 68 66 65 62 52 64 67 82 85 82 77 86 87 80 71 78 89 95 103 121 133 147 155 138 211 55 53 46 358 126 113 166 159 170 356 311 309
102 101 161 182 147 149 143 151 148 138 131 141 129 128 128 125 126 123 106 92 94 98 92 88 87 82 74 70 61 64 69 81 82 79 80 78 70 68 74 77 73 72 76 70 78 114 115 145 124 171 91 60 76 198 83 171 154 125 153 143 280 280
136 134 171 186 165 164 161 159 142 145 141 138 127 125 123 132 125 117 116 111 108 104 101 91 86 80 69 68 69 66 67 70 76 79 76 76 75 71 66 71 78 81 71 68 53 68 91 96 79 75 144 159 137 116 86 42 95 282 316 124 209 326
166 138 166 186 172 178 177 172 151 156 145 140 138 135 132 124 125 122 118 120 116 111 103 99 86 79 87 79 77 71 76 83 88 88 87 86 90 91 84 78 69 67 67 72 64 70 70 69 77 62 50 70 87 99 111 109 46 15 82 53 23 347
300 150 149 193 180 189 187 174 157 159 148 147 144 143 144 143 145 138 137 133 124 108 99 97 96 90 75 81 80 72 66 68 75 83 98 105 90 82 81 80 74 78 78 72 67 69 72 65 59 66 60 71 94 99 86 89 86 102 91 101 103 337
193 186 163 174 178 194 198 187 168 163 154 149 146 146 146 146 152 143 141 132 129 126 121 110 114 111 118 108 96 82 76 77 81 92 101 100 103 96 93 91 96 94 94 95 96 98 88 90 89 84 89 69 84 65 64 61 65 62 51 67 73 59
165 120 135 155 162 191 208 204 189 169 159 151 149 150 153 151 157 147 144 143 141 142 139 142 134 137 154 132 101 112 105 88 84 82 92 103 112 116 110 106 105 104 107 117 102 98 102 91 76 77 79 76 62 76 55 51 72 73 74 71 64 89
68 17 53 101 78 45 5 302 260 186 166 153 154 154 157 159 158 148 150 145 146 144 141 145 140 154 137 104 112 108 108 96 86 77 72 80 94 95 97 91 91 98 95 92 88 86 81 86 75 66 57 86 78 54 36 34 61 62 77 84 121 116
73 40 338 117 127 110 151 282 271 203 175 157 155 153 155 159 164 153 154 150 154 153 151 146 146 141 129 120 116 112 105 117 110 93 82 84 93 99 97 95 92 95 111 115 102 96 93 84 86 84 71 90 89 83 62 57 61 58 45 50 59 43
133 128 162 245 146 137 158 243 260 219 175 161 161 159 160 166 168 162 156 153 154 157 147 146 151 149 138 135 129 123 118 116 123 130 128 90 106 110 110 107 111 113 110 84 114 131 124 105 143 100 33 72 126 118 89 93 79 80 66 50 28 9